Back to catalog

OPS 5798 DEB

AlivePO
NORAD 903·DEBRIS·🇺🇸 United States

Launched Oct 6, 1964 from Vandenberg Space Force Base

Loading…

Next Passes (next 24 hours)

TLE

FreshSource: Space-Track

Epoch: Sep 14, 2026, 05:38 UTC

1 00903U 64063F   26257.23520241  .00000578  00000-0  53953-3 0  9990
2 00903  90.2203  73.1980 0021462 193.5034 341.4654 13.80849848 86653

Track OPS 5798 DEB in real time with AllMySat

Download on the App Store